Home   Weather   Annapolis County   Past weeks

Flag for Canada Past Weather in Annapolis County, Nova Scotia, Canada — Yesterday and Last 2 Weeks

Now
26 °F

Chilly.


Feels Like: 19 °F
Forecast: 25 / 32 °F
Wind: 7 mph from East

Location: Kejimkujik 1

Current Time: Jan 23, 2017 at 6:49:55 am

Latest Report: Jan 23, 2017 at 6:00 am


Visibility: N/A

Pressure: 30.10 "Hg

Humidity: 81%

Dew Point: 21 °F

Location of Annapolis CountyLocation

Past Weather in Annapolis County — Graph

°F

Annapolis County Temperature Yesterday

Maximum temperature yesterday: 35 °F (at 1:00 pm)
Minimum temperature yesterday: 27 °F (at 11:00 pm)
Average temperature yesterday: 31 °F

High & Low Weather Summary for the Past Weeks

 TemperatureHumidityPressure
High49 °F (Jan 12, 3:00 pm)100% (Jan 8, 10:00 am)30.76 "Hg (Jan 8, 10:00 am)
Low0 °F (Jan 10, 6:00 am)45% (Jan 13, 9:00 pm)29.65 "Hg (Jan 8, 6:00 am)
Average25 °F84%30.16 "Hg
* Reported Jan 8 5:00 am — Jan 23 5:00 am, Annapolis County, Weather by CustomWeather, © 2017

Note: Actual official high and low records may vary slightly from our data, if they occured in-between our weather recording intervals... More about our weather records

Advertising

Annapolis County Weather History for the Previous 24 Hours

Scroll right to see more
 ConditionsComfort  
Time TempWeatherWind HumidityBarometerVisibility
5:00 am
Mon, Jan 23
27 °FChilly.5 mph80%30.10 "HgN/A
4:00 am27 °FChilly.5 mph83%30.08 "HgN/A
3:00 am27 °FChilly.5 mph80%30.08 "HgN/A
2:00 am27 °FChilly.3 mph79%30.07 "HgN/A
1:00 am27 °FChilly.6 mph78%30.05 "HgN/A
12:00 am27 °FChilly.7 mph82%30.02 "HgN/A
11:00 pm
Sun, Jan 22
27 °FChilly.7 mph80%30.01 "HgN/A
10:00 pm27 °FChilly.8 mph81%30.00 "HgN/A
9:00 pm29 °FChilly.8 mph77%30.01 "HgN/A
8:00 pm30 °FChilly.6 mph78%29.98 "HgN/A
7:00 pm30 °FChilly.3 mph75%29.96 "HgN/A
6:00 pm31 °FChilly.6 mph73%29.95 "HgN/A
5:00 pm31 °FChilly.5 mph76%29.92 "HgN/A
4:00 pm32 °FChilly.5 mph78%29.90 "HgN/A
3:00 pm33 °FChilly.3 mph73%29.87 "HgN/A
2:00 pm34 °FChilly.3 mph71%29.83 "HgN/A
1:00 pm35 °FChilly.6 mph80%29.81 "HgN/A
12:00 pm34 °FChilly.6 mph84%29.83 "HgN/A
11:00 am32 °FChilly.3 mph86%29.85 "HgN/A
10:00 am33 °FChilly.3 mph83%29.82 "HgN/A
9:00 am31 °FChilly.5 mph95%29.78 "HgN/A
8:00 am31 °FChilly.2 mph96%29.76 "HgN/A
7:00 am31 °FChilly.2 mph96%29.75 "HgN/A
6:00 am31 °FChilly.2 mph96%29.73 "HgN/A
Weather by CustomWeather, © 2017

See weather overviewHow to use our weather pages